TimeEDT,TemperatureF,Dew PointF,Humidity,Sea Level PressureIn,VisibilityMPH,Wind Direction,Wind SpeedMPH,Gust SpeedMPH,PrecipitationIn,Events,Conditions,WindDirDegrees,DateUTC
12:53 AM,73.0,68.0,84,30.02,5.0,Calm,Calm,-,N/A,,Haze,0,2013-07-07 04:53:00
1:53 AM,72.0,68.0,87,30.01,4.0,Calm,Calm,-,N/A,,Overcast,0,2013-07-07 05:53:00
2:53 AM,73.0,68.0,84,30.00,6.0,South,6.9,-,N/A,,Haze,190,2013-07-07 06:53:00
3:53 AM,75.0,68.0,79,29.99,9.0,SW,9.2,-,N/A,,Overcast,220,2013-07-07 07:53:00
4:53 AM,73.9,68.0,82,29.99,7.0,SW,8.1,-,N/A,,Overcast,230,2013-07-07 08:53:00
5:53 AM,73.9,68.0,82,30.00,7.0,SSW,5.8,-,N/A,,Overcast,200,2013-07-07 09:53:00
6:26 AM,73.4,68.0,83,30.02,7.0,SW,5.8,-,N/A,,Mostly Cloudy,220,2013-07-07 10:26:00
6:53 AM,73.0,68.0,84,30.01,5.0,SSW,5.8,-,N/A,,Haze,200,2013-07-07 10:53:00
7:53 AM,73.9,68.0,82,30.01,8.0,SSW,6.9,-,N/A,,Clear,210,2013-07-07 11:53:00
8:53 AM,75.9,68.0,76,30.02,10.0,South,5.8,-,N/A,,Mostly Cloudy,190,2013-07-07 12:53:00
9:53 AM,75.9,66.9,74,30.03,10.0,SW,5.8,-,N/A,,Partly Cloudy,230,2013-07-07 13:53:00
10:27 AM,78.8,68.0,69,30.04,10.0,SSW,5.8,-,N/A,,Partly Cloudy,200,2013-07-07 14:27:00
10:53 AM,79.0,68.0,69,30.03,10.0,SW,10.4,-,N/A,,Partly Cloudy,230,2013-07-07 14:53:00
11:53 AM,81.0,68.0,65,30.02,10.0,SSW,5.8,-,N/A,,Partly Cloudy,200,2013-07-07 15:53:00
12:53 PM,82.9,69.1,63,30.01,10.0,WSW,9.2,-,N/A,,Partly Cloudy,250,2013-07-07 16:53:00
1:53 PM,82.0,68.0,62,30.01,10.0,SW,9.2,-,N/A,,Partly Cloudy,230,2013-07-07 17:53:00
2:53 PM,82.9,68.0,60,30.00,10.0,SW,10.4,-,N/A,,Clear,230,2013-07-07 18:53:00
3:53 PM,84.9,68.0,57,29.99,10.0,SW,11.5,-,N/A,,Clear,230,2013-07-07 19:53:00
4:53 PM,84.9,68.0,57,29.97,10.0,SW,11.5,-,N/A,,Clear,230,2013-07-07 20:53:00
5:53 PM,82.0,66.0,58,29.97,10.0,WSW,9.2,-,N/A,,Clear,240,2013-07-07 21:53:00
6:53 PM,82.0,68.0,62,29.96,10.0,SW,8.1,-,N/A,,Clear,230,2013-07-07 22:53:00
7:53 PM,82.0,69.1,65,29.98,10.0,SW,6.9,-,N/A,,Mostly Cloudy,230,2013-07-07 23:53:00
8:53 PM,80.1,70.0,71,29.97,10.0,SSW,8.1,-,N/A,,Overcast,210,2013-07-08 00:53:00
9:53 PM,79.0,69.1,72,29.99,9.0,South,3.5,-,N/A,,Mostly Cloudy,190,2013-07-08 01:53:00
10:53 PM,79.0,69.1,72,29.99,10.0,SSW,3.5,-,N/A,,Mostly Cloudy,210,2013-07-08 02:53:00
11:53 PM,77.0,69.1,76,29.99,10.0,South,3.5,-,N/A,,Clear,180,2013-07-08 03:53:00